Weather History for KHLC - December, 2012

Change the Weather History Date:

Saturday, December 22, 2012

  Actual Average Record
Temperature  
Mean Temperature 31 °F 29 °F  
Max Temperature 49 °F 42 °F 68 °F (1964)
Min Temperature 13 °F 17 °F -26 °F (1989)
Degree Days  
Heating Degree Days 34    
Moisture  
Dew Point 21 °F    
Average Humidity 74    
Maximum Humidity 96    
Minimum Humidity 36    
Precipitation  
Precipitation 0.00 in 0.02 in 0.03 in (2001)
Month to date precipitation 0.63 0.54  
Year to date precipitation 10.37 22.77  
Sea Level Pressure  
Sea Level Pressure 30.06 in    
Wind  
Wind Speed 4 mph (NW)    
Max Wind Speed 13 mph    
Max Gust Speed -    
Visibility 10 miles    
Events      
T = Trace of Precipitation, MM = Missing Value Source: NWS Daily Summary

Daily Weather History Graph

Daily Weather History Graph

Search for Another Location

Airport or City:

Trip Planner

Search our weather history database for the weather conditions in past years. The results will help you decide how hot, cold, wet, or windy it might be!

Date:

Astronomy

Dec. 22, 2012 Rise Set
Actual Time 7:56 AM CST 5:20 PM CST
Civil Twilight 7:26 AM CST 5:50 PM CST
Nautical Twilight 6:52 AM CST 6:24 PM CST
Astronomical Twilight 6:19 AM CST 6:56 PM CST
Moon 1:37 PM CST (12/22) 2:44 AM CST (12/22)
Length of Visible Light 10h 24m
Length of Day
9h 23m
Waxing Gibbous, 74% of the Moon is Illuminated
Dec 22
Waxing Gibbous
Dec 28
Full
Jan 4
Last Quarter
Jan 11
New
Jan 18
First Quarter

Hourly Weather History & Observations

Time (CST) Temp. Windchill Dew Point Humidity Pressure Visibility Wind Dir Wind Speed Gust Speed Precip Events Conditions
12:53 AM 18.0 °F - 17.1 °F 96% 30.14 in 10.0 mi Calm Calm - N/A   Clear
1:53 AM 17.1 °F - 15.1 °F 92% 30.12 in 10.0 mi Calm Calm - N/A   Clear
3:53 AM 14.0 °F - 12.9 °F 95% 30.10 in 10.0 mi Calm Calm - N/A   Clear
4:53 AM 14.0 °F 8.2 °F 12.0 °F 92% 30.08 in 10.0 mi WSW 3.5 mph - N/A   Clear
6:53 AM 17.1 °F 11.7 °F 14.0 °F 88% 30.06 in 10.0 mi West 3.5 mph - N/A   Clear
7:53 AM 14.0 °F 6.5 °F 12.0 °F 92% 30.09 in 10.0 mi West 4.6 mph - N/A   Clear
8:53 AM 19.0 °F 11.1 °F 16.0 °F 88% 30.09 in 10.0 mi West 5.8 mph - N/A   Clear
9:53 AM 28.9 °F 21.9 °F 23.0 °F 78% 30.09 in 10.0 mi West 6.9 mph - N/A   Clear
10:53 AM 36.0 °F 31.1 °F 25.0 °F 64% 30.08 in 10.0 mi NW 5.8 mph - N/A   Clear
11:53 AM 41.0 °F 39.0 °F 25.0 °F 53% 30.05 in 10.0 mi NNW 3.5 mph - N/A   Clear
12:53 PM 44.1 °F 40.1 °F 25.0 °F 47% 30.02 in 10.0 mi NNW 6.9 mph - N/A   Clear
1:53 PM 48.0 °F - 21.9 °F 36% 29.99 in 10.0 mi NNW 12.7 mph - N/A   Clear
2:53 PM 46.0 °F 40.2 °F 24.1 °F 42% 29.99 in 10.0 mi NNW 12.7 mph - N/A   Clear
3:53 PM 43.0 °F 37.2 °F 25.0 °F 49% 30.00 in 10.0 mi NW 10.4 mph - N/A   Clear
4:53 PM 37.9 °F 30.5 °F 26.1 °F 62% 30.02 in 10.0 mi NNW 11.5 mph - N/A   Clear
5:53 PM 36.0 °F 33.3 °F 25.0 °F 64% 30.03 in 10.0 mi WNW 3.5 mph - N/A   Clear
6:53 PM 34.0 °F - 25.0 °F 70% 30.05 in 10.0 mi Calm Calm - N/A   Clear
7:53 PM 28.9 °F 23.9 °F 24.1 °F 82% 30.08 in 10.0 mi WNW 4.6 mph - N/A   Clear
8:53 PM 28.0 °F 20.0 °F 23.0 °F 81% 30.07 in 10.0 mi North 8.1 mph - N/A   Clear
9:53 PM 27.0 °F 18.7 °F 23.0 °F 85% 30.06 in 10.0 mi North 8.1 mph - N/A   Clear
10:53 PM 27.0 °F 20.5 °F 21.9 °F 81% 30.06 in 10.0 mi North 5.8 mph - N/A   Clear
11:53 PM 23.0 °F 18.4 °F 21.0 °F 92% 30.06 in 10.0 mi NNW 3.5 mph - N/A   Clear